Weather in Kedrozero

Russia / Republic of Karelia     62°21′42″N   34°29′48″E
temp.,
°C
wind,
m/s
gust,
m/s
humid.,
%
clouds,
%
prec.,
mm/h
press.,
hPa
HPBL,
m
3 march, wed
wed300:00−6wnw310910 0.0 1010232
03:00−6w310941 0.0 1011316
06:00−3wnw5109287 0.0 1008593
09:00−4wnw5119092 0.0 1007626
12:00−2w5108883 0.0 1005567
15:00−1w5109288 0.3 1002835
18:00−2w3997100 0.9 998559
21:00−2w41193100 1.2 997733
4 march, thu
thu400:00−4nnw5119198 0.5 997676
03:00−7nnw499394 0.6 1000327
06:00−11nnw359653 0.0 1000114
09:00−11nnw379526 0.0 1001187
12:00−7nnw259330 0.0 1001308
15:00−5nw259049 0.0 1002506
18:00−8nw129692 0.1 100221
21:00−10nw239693 0.1 100273
5 march, fri
fri500:00−13nw239554 0.0 100336
03:00−11nnw269672 0.1 1004166
06:00−12n3794100 0.1 1006257
09:00−14nnw399490 0.1 1007264
12:00−10nnw368637 0.0 1009487
15:00−9wnw249067 0.1 1011504
18:00−10w229497 0.1 101155
21:00−12wnw259595 0.1 1012129
6 march, sat
sat600:00−14wnw239620 0.0 101273
03:00−15wnw239623 0.0 101227
06:00−16w23960 0.0 101226
09:00−15wsw24971 0.0 1010122
12:00−9sw379351 0.0 1008365
15:00−6ssw488975 0.1 1004819
18:00−7s51195100 0.3 998764
21:00−6s61195100 1.7 992862
7 march, sun
sun700:00−6sse51095100 1.9 987642
03:00−5sse4796100 3.3 983328
06:00−6ese2398100 0.6 98090
09:00−5ene5995100 0.9 980447
12:00−6ne71292100 0.5 982761
15:00−8nne81490100 0.9 986905
18:00−11nne81490100 0.4 991913
21:00−13n81589100 0.8 995929